Tracking 35274 objects as of 11-Sep-2026
HD Live streaming from Space Station
objects crossing your sky now

ARIANE 44LP R/B


ARIANE 44LP R/B is no longer on orbit


NORAD ID: 22906
Int'l Code: 1993-066B
Launch date: October 22, 1993
Source: France (FR)
Launch site: FRENCH GUIANA (FRGUI)
Decay date: 1994-04-17

Note: This is a ROCKET BODY
Your satellite tracking list
Your tracking list is empty




NASA's NSSDC Master Catalog

Two Line Element Set (TLE):
1 22906U 93066  B 94106.98407287  .68025512 -10424-3 +22253-2 0  9998
2 22906 006.6983 177.0573 1078768 072.8543 298.2192 13.99967675001667
Source of the keplerian elements: AFSPC